Flag for U.S.A. Weather past 2 weeks in Santa Clara, California, U.S.A.

Now
58 °F

Passing clouds.


Feels Like: 58 °F
Forecast: 58 / 77 °F
Wind: No wind

Location: San Jose International Airport

Current Time: Sep 16, 2014 at 8:50:58 AM

Latest Report: Sep 16, 2014 at 7:53 AM


Visibility: 10 mi

Pressure: 29.93 "Hg

Humidity: 81%

Dew point: 52 °F

Location of Santa ClaraLocation

Historic Weather in Santa Clara — Graph

°F

Santa Clara temperature yesterday

Maximum temperature yesterday: 76 °F (at 1:53 PM)
Minimum temperature yesterday: 60 °F (at 4:53 AM)
Average temperature yesterday: 67 °F

Past Weeks' High & Low Weather Summary

 TemperatureHumidityPressure
High88 °F (Sep 10, 3:53 PM)97% (Sep 10, 5:53 AM)30.00 "Hg (Sep 10, 5:53 AM)
Low55 °F (Sep 9, 2:53 AM)22% (Sep 11, 2:53 PM)29.68 "Hg (Sep 3, 4:53 PM)
Average66 °F71%29.85 "Hg
* Reported Sep 1 6:53 AM — Sep 16 6:53 AM, Santa Clara, Weather by CustomWeather, © 2014

Note: Actual official high and low records may vary slightly from our data, if they occured in-between our weather recording intervals... More about our weather records

Advertising

Santa Clara weather history for previous 24 hours

 ConditionsComfort  
Time TempWeatherWind HumidityBarometerVisibility
6:53 AM
Sep 16
57 °FPassing clouds.No wind81%29.92 "Hg10 mi
5:53 AM57 °FPassing clouds.No wind81%29.92 "Hg10 mi
4:53 AM58 °FClear.No wind78%29.91 "Hg10 mi
3:53 AM59 °FClear.No wind78%29.91 "Hg10 mi
2:53 AM60 °FClear.3 mph75%29.92 "Hg10 mi
1:53 AM63 °FClear.No wind75%29.94 "Hg10 mi
12:53 AM62 °FClear.5 mph75%29.94 "Hg10 mi
11:53 PM
Sep 15
64 °FClear.5 mph70%29.94 "Hg10 mi
10:53 PM65 °FClear.6 mph68%29.93 "Hg10 mi
9:53 PM66 °FClear.6 mph63%29.92 "Hg10 mi
8:53 PM67 °FClear.6 mph61%29.91 "Hg10 mi
7:53 PM68 °FSunny.9 mph59%29.89 "Hg10 mi
6:53 PM70 °FSunny.16 mph53%29.88 "Hg10 mi
5:53 PM74 °FPassing clouds.17 mph45%29.88 "Hg10 mi
4:53 PM76 °FSunny.15 mph43%29.87 "Hg10 mi
3:53 PM75 °FSunny.16 mph48%29.87 "Hg10 mi
2:53 PM76 °FPassing clouds.14 mph52%29.88 "Hg10 mi
1:53 PM76 °FPassing clouds.9 mph54%29.89 "Hg10 mi
12:53 PM72 °FSunny.6 mph59%29.90 "Hg10 mi
11:53 AM70 °FPassing clouds.5 mph64%29.91 "Hg10 mi
10:53 AM68 °FPassing clouds.7 mph70%29.92 "Hg10 mi
9:53 AM67 °FBroken clouds.8 mph73%29.92 "Hg8 mi
8:53 AM62 °FMostly cloudy.No wind86%29.91 "Hg8 mi
Weather by CustomWeather, © 2014

See weather overviewHow to use our weather pages